| time (UTC) | temp F | wind direction | speed knots | gust knots | rain 1hr in | rain 24hr in | rain mn in | humidity % | barometer mb |
| 20260508221530 | 58 | 190 | 0.0 | 8.7 | 0.00 | 0.00 | 0.00 | 43 | 1008.4 |
| 20260508220029 | 58 | 355 | 0.0 | 10.4 | 0.00 | 0.00 | 0.00 | 43 | 1008.3 |
| 20260508214529 | 59 | 303 | 0.9 | 9.6 | 0.00 | 0.00 | 0.00 | 42 | 1008.1 |
| 20260508213028 | 58 | 325 | 0.0 | 4.3 | 0.00 | 0.00 | 0.00 | 43 | 1008.0 |
| 20260508211528 | 60 | 277 | 2.6 | 13.0 | 0.00 | 0.00 | 0.00 | 43 | 1008.0 |
| 20260508210030 | 61 | 317 | 1.7 | 9.6 | 0.00 | 0.00 | 0.00 | 42 | 1008.0 |
| 20260508204529 | 59 | 181 | 0.9 | 11.3 | 0.00 | 0.00 | 0.00 | 41 | 1007.9 |
| 20260508203026 | 59 | 249 | 1.7 | 8.7 | 0.00 | 0.00 | 0.00 | 41 | 1007.7 |
| 20260508201527 | 59 | 306 | 3.5 | 9.6 | 0.00 | 0.00 | 0.00 | 41 | 1007.6 |
| 20260508200026 | 60 | 281 | 2.6 | 10.4 | 0.00 | 0.00 | 0.00 | 40 | 1007.4 |
| 20260508194533 | 61 | 264 | 2.6 | 11.3 | 0.00 | 0.00 | 0.00 | 38 | 1007.1 |
| 20260508193023 | 61 | 329 | 0.9 | 10.4 | 0.00 | 0.00 | 0.00 | 38 | 1007.2 |
| 20260508191532 | 60 | 347 | 2.6 | 8.7 | 0.00 | 0.00 | 0.00 | 35 | 1007.2 |
| 20260508190024 | 61 | 69 | 2.6 | 12.2 | 0.00 | 0.00 | 0.00 | 38 | 1007.2 |
| 20260508184524 | 60 | 155 | 0.9 | 13.0 | 0.00 | 0.00 | 0.00 | 36 | 1007.2 |
| 20260508183028 | 61 | 261 | 0.9 | 9.6 | 0.00 | 0.00 | 0.00 | 37 | 1007.2 |
| 20260508181520 | 61 | 355 | 3.5 | 10.4 | 0.00 | 0.00 | 0.00 | 37 | 1007.3 |
| 20260508180022 | 61 | 275 | 2.6 | 10.4 | 0.00 | 0.00 | 0.00 | 37 | 1007.1 |
| 20260508174520 | 61 | 350 | 1.7 | 12.2 | 0.00 | 0.00 | 0.00 | 39 | 1007.1 |
| 20260508173019 | 61 | 328 | 0.9 | 9.6 | 0.00 | 0.00 | 0.00 | 41 | 1007.2 |
| 20260508171518 | 60 | 340 | 2.6 | 11.3 | 0.00 | 0.00 | 0.00 | 38 | 1007.4 |
| 20260508170019 | 62 | 168 | 2.6 | 10.4 | 0.00 | 0.00 | 0.00 | 38 | 1007.3 |
| 20260508164516 | 59 | 222 | 1.7 | 8.7 | 0.00 | 0.00 | 0.00 | 40 | 1007.5 |
| 20260508163027 | 62 | 323 | 2.6 | 9.6 | 0.00 | 0.00 | 0.00 | 42 | 1007.5 |
| 20260508161513 | 61 | 9 | 0.9 | 7.0 | 0.00 | 0.00 | 0.00 | 40 | 1007.7 |
| 20260508160020 | 62 | 332 | 1.7 | 8.7 | 0.00 | 0.00 | 0.00 | 41 | 1007.9 |
| 20260508154516 | 60 | 281 | 2.6 | 8.7 | 0.00 | 0.00 | 0.00 | 37 | 1008.1 |
| 20260508153011 | 60 | 355 | 2.6 | 9.6 | 0.00 | 0.00 | 0.00 | 37 | 1008.1 |
| 20260508151512 | 60 | 296 | 0.9 | 3.5 | 0.00 | 0.00 | 0.00 | 38 | 1008.1 |
| 20260508150025 | 60 | 234 | 1.7 | 7.0 | 0.00 | 0.00 | 0.00 | 40 | 1008.1 |
| 20260508144506 | 59 | 15 | 0.0 | 8.7 | 0.00 | 0.00 | 0.00 | 41 | 1008.3 |
| 20260508143134 | 59 | 323 | 3.5 | 13.0 | 0.00 | 0.00 | 0.00 | 39 | 1008.3 |
| 20260508141602 | 58 | 79 | 0.9 | 7.0 | 0.00 | 0.00 | 0.00 | 40 | 1008.5 |
| 20260508140105 | 58 | 267 | 2.6 | 7.8 | 0.00 | 0.00 | 0.00 | 41 | 1008.6 |
| 20260508134549 | 58 | 38 | 0.9 | 7.8 | 0.00 | 0.00 | 0.00 | 44 | 1008.8 |
| 20260508133047 | 57 | 257 | 1.7 | 7.0 | 0.00 | 0.00 | 0.00 | 39 | 1008.9 |
| 20260508131541 | 56 | 302 | 0.9 | 4.3 | 0.00 | 0.00 | 0.00 | 46 | 1008.8 |
| 20260508130036 | 55 | 285 | 0.9 | 7.0 | 0.00 | 0.00 | 0.00 | 44 | 1008.9 |
| 20260508124533 | 55 | 269 | 0.0 | 5.2 | 0.00 | 0.00 | 0.00 | 46 | 1009.0 |
| 20260508123027 | 54 | 36 | 0.0 | 2.6 | 0.00 | 0.00 | 0.00 | 50 | 1008.9 |
| 20260508121523 | 53 | 40 | 0.0 | 4.3 | 0.00 | 0.00 | 0.00 | 52 | 1009.1 |
| 20260508120016 | 51 | 51 | 0.9 | 4.3 | 0.00 | 0.00 | 0.00 | 56 | 1009.2 |
| 20260508114511 | 49 | 254 | 0.9 | 6.1 | 0.00 | 0.07 | 0.00 | 59 | 1009.2 |
| 20260508113008 | 46 | 313 | 0.0 | 1.7 | 0.00 | 0.07 | 0.00 | 69 | 1009.2 |
| 20260508111504 | 43 | 287 | 0.0 | 0.9 | 0.00 | 0.07 | 0.00 | 82 | 1009.0 |
| 20260508110109 | 41 | 300 | 0.0 | 0.0 | 0.00 | 0.07 | 0.00 | 85 | 1008.9 |
| 20260508104605 | 40 | 300 | 0.0 | 0.0 | 0.00 | 0.10 | 0.00 | 85 | 1008.7 |
| 20260508103054 | 40 | 300 | 0.0 | 0.0 | 0.00 | 0.10 | 0.00 | 84 | 1008.6 |
| 20260508101553 | 39 | 300 | 0.0 | 0.0 | 0.00 | 0.10 | 0.00 | 83 | 1008.5 |
| 20260508100048 | 39 | 300 | 0.0 | 0.0 | 0.00 | 0.10 | 0.00 | 82 | 1008.4 |
| 20260508094547 | 39 | 300 | 0.0 | 0.0 | 0.00 | 0.11 | 0.00 | 81 | 1008.2 |
| 20260508093041 | 39 | 300 | 0.0 | 0.0 | 0.00 | 0.11 | 0.00 | 80 | 1008.1 |
| 20260508091539 | 39 | 300 | 0.0 | 0.0 | 0.00 | 0.11 | 0.00 | 78 | 1008.1 |
| 20260508090040 | 39 | 300 | 0.0 | 0.0 | 0.00 | 0.11 | 0.00 | 78 | 1008.1 |
| 20260508084535 | 40 | 300 | 0.0 | 0.0 | 0.00 | 0.21 | 0.00 | 77 | 1008.0 |
| 20260508083036 | 40 | 300 | 0.0 | 0.0 | 0.00 | 0.21 | 0.00 | 75 | 1007.7 |
| 20260508081529 | 41 | 300 | 0.0 | 0.0 | 0.00 | 0.21 | 0.00 | 74 | 1007.5 |
| 20260508080049 | 41 | 300 | 0.0 | 0.0 | 0.00 | 0.21 | 0.00 | 72 | 1007.2 |
| 20260508074525 | 42 | 300 | 0.0 | 0.0 | 0.00 | 0.30 | 0.00 | 71 | 1006.9 |
| 20260508073023 | 43 | 300 | 0.0 | 0.0 | 0.00 | 0.30 | 0.00 | 70 | 1006.6 |
| 20260508071518 | 44 | 300 | 0.0 | 0.0 | 0.00 | 0.30 | 0.00 | 68 | 1006.5 |
| 20260508070021 | 45 | 300 | 0.0 | 0.0 | 0.00 | 0.30 | 0.00 | 67 | 1006.5 |
| 20260508064528 | 45 | 300 | 0.0 | 0.0 | 0.00 | 0.30 | 0.00 | 64 | 1006.4 |
| 20260508063008 | 46 | 300 | 0.0 | 0.0 | 0.00 | 0.30 | 0.00 | 62 | 1006.5 |
| 20260508061504 | 47 | 300 | 0.0 | 0.0 | 0.00 | 0.30 | 0.00 | 58 | 1006.4 |
| 20260508060002 | 48 | 300 | 0.0 | 0.9 | 0.00 | 0.30 | 0.00 | 57 | 1006.4 |
| 20260508054601 | 49 | 276 | 0.0 | 0.9 | 0.00 | 0.30 | 0.00 | 54 | 1006.4 |
| 20260508053101 | 50 | 263 | 0.0 | 0.9 | 0.00 | 0.30 | 0.00 | 53 | 1006.5 |
| 20260508051608 | 50 | 259 | 0.0 | 4.3 | 0.00 | 0.30 | 0.00 | 51 | 1006.5 |
| 20260508050104 | 50 | 284 | 0.0 | 3.5 | 0.00 | 0.30 | 0.00 | 50 | 1006.5 |
| 20260508044555 | 50 | 273 | 0.0 | 2.6 | 0.00 | 0.30 | 0.00 | 51 | 1006.6 |
| 20260508043050 | 50 | 255 | 0.0 | 3.5 | 0.00 | 0.30 | 0.00 | 52 | 1006.5 |
| 20260508041552 | 51 | 329 | 0.0 | 1.7 | 0.00 | 0.30 | 0.00 | 52 | 1006.6 |
| 20260508040054 | 51 | 296 | 0.0 | 1.7 | 0.00 | 0.30 | 0.00 | 54 | 1006.5 |
| 20260508034548 | 51 | 296 | 0.0 | 6.1 | 0.00 | 0.30 | 0.30 | 53 | 1006.6 |
| 20260508033047 | 51 | 272 | 0.0 | 5.2 | 0.00 | 0.30 | 0.30 | 53 | 1006.5 |
| 20260508031545 | 51 | 326 | 0.0 | 1.7 | 0.00 | 0.30 | 0.30 | 53 | 1006.6 |
| 20260508030052 | 51 | 246 | 0.0 | 1.7 | 0.00 | 0.30 | 0.30 | 53 | 1006.6 |
| 20260508024545 | 52 | 355 | 0.0 | 2.6 | 0.00 | 0.30 | 0.30 | 53 | 1006.6 |
| 20260508023043 | 52 | 286 | 0.0 | 1.7 | 0.00 | 0.30 | 0.30 | 52 | 1006.6 |
| 20260508021543 | 53 | 288 | 0.0 | 2.6 | 0.00 | 0.30 | 0.30 | 51 | 1006.7 |
| 20260508020043 | 53 | 277 | 0.0 | 0.9 | 0.00 | 0.30 | 0.30 | 49 | 1006.7 |
| 20260508014542 | 54 | 324 | 0.0 | 5.2 | 0.00 | 0.30 | 0.30 | 47 | 1006.6 |
| 20260508013041 | 54 | 311 | 0.0 | 0.9 | 0.00 | 0.30 | 0.30 | 46 | 1006.3 |
| 20260508011541 | 55 | 254 | 0.0 | 6.1 | 0.00 | 0.30 | 0.30 | 46 | 1006.1 |
| 20260508010041 | 55 | 265 | 0.0 | 1.7 | 0.00 | 0.30 | 0.30 | 45 | 1006.0 |
| 20260508004547 | 55 | 311 | 0.0 | 4.3 | 0.00 | 0.30 | 0.30 | 44 | 1005.6 |
| 20260508003046 | 55 | 263 | 1.7 | 6.1 | 0.00 | 0.30 | 0.30 | 44 | 1005.2 |
| 20260508001541 | 56 | 303 | 0.0 | 5.2 | 0.00 | 0.30 | 0.30 | 44 | 1005.1 |
| 20260508000038 | 57 | 304 | 0.0 | 3.5 | 0.00 | 0.30 | 0.30 | 42 | 1004.9 |
| 20260507234548 | 58 | 360 | 0.0 | 3.5 | 0.00 | 0.33 | 0.30 | 42 | 1004.8 |
| 20260507233044 | 59 | 284 | 0.9 | 8.7 | 0.00 | 0.33 | 0.30 | 41 | 1004.8 |
| 20260507231538 | 59 | 314 | 0.9 | 11.3 | 0.00 | 0.33 | 0.30 | 38 | 1004.6 |
| 20260507230037 | 60 | 261 | 0.9 | 8.7 | 0.00 | 0.33 | 0.30 | 39 | 1004.5 |
| 20260507224537 | 61 | 267 | 0.0 | 3.5 | 0.00 | 0.35 | 0.30 | 41 | 1004.2 |
| 20260507223046 | 62 | 254 | 0.9 | 3.5 | 0.00 | 0.35 | 0.30 | 41 | 1004.1 |